RH
14 13 12 11 10 10 9 10 10 11 13 15 16 18 18 20 26 33 48 69 84 95 101 97 93 95 98 98 98 97 96 95 92 88 82 74 68 64 64 65 66 68 71 75 79 82 87 91 95 96 97 99 99 97 99 100 100 99 93 88 88 85 84 85 82 82 83 74 67 68 66 64 64 60 60 61 59 58 57 62 71 72 64 56 50 46 44
9 8 8 7 6 6 6 6 6 6 7 9 10 13 15 17 19 23 35 52 69 86 94 94 95 97 98 99 99 98 99 99 98 96 92 86 81 75 71 70 70 71 74 77 81 85 86 89 95 97 96 96 96 98 101 101 101 100 96 92 91 89 86 84 84 87 87 76 66 64 61 61 64 63 62 61 61 62 58 59 67 66 59 57 54 48 47
7 6 6 6 5 5 5 5 5 5 5 5 6 7 10 12 15 18 24 34 51 69 80 88 97 100 100 100 100 99 98 96 98 100 98 95 91 86 80 77 76 76 77 79 83 87 90 92 95 97 97 96 95 97 100 101 101 101 98 96 95 92 89 86 86 86 83 75 69 66 67 66 63 61 61 59 59 59 57 59 59 53 51 56 56 49 49
7 7 6 6 6 6 6 5 5 5 4 4 4 4 5 7 10 13 17 24 36 51 65 79 89 96 100 101 98 99 99 94 96 101 101 99 98 94 89 87 85 83 82 84 85 89 95 97 96 97 100 99 97 97 97 100 102 100 99 100 97 95 93 89 89 88 86 88 86 75 70 71 68 63 61 60 59 58 58 58 55 53 57 59 54 51 53
7 6 7 6 6 6 6 6 6 5 5 5 4 4 4 4 5 9 15 23 29 37 52 71 84 92 98 100 97 98 101 97 96 99 99 99 100 99 96 94 94 91 89 91 90 93 98 101 99 99 101 100 99 99 100 100 101 100 102 101 98 98 97 92 91 91 88 94 96 85 78 79 76 72 71 68 63 61 60 57 56 61 65 58 54 61 66
7 6 7 6 6 6 6 7 7 6 6 6 5 5 4 3 5 8 16 27 32 34 42 61 83 96 99 99 99 99 100 99 96 96 97 99 100 100 98 97 98 97 97 98 97 98 101 100 99 99 101 101 100 101 101 99 99 101 101 100 100 100 98 94 95 97 94 92 93 89 86 84 79 77 79 79 77 73 66 60 61 66 65 57 56 65 67
8 7 7 6 6 7 6 7 8 7 7 6 6 7 6 5 6 9 21 36 39 39 45 55 75 95 100 100 101 100 99 100 99 98 100 101 99 99 99 99 99 100 100 100 100 100 101 99 98 100 101 101 100 101 101 99 98 101 100 100 101 101 99 98 99 100 99 96 91 86 83 81 76 73 76 79 82 78 69 65 67 66 63 60 59 58 56
9 9 8 7 7 7 7 8 8 7 8 7 7 8 7 7 7 11 33 54 52 51 63 70 77 92 100 100 99 99 99 100 100 100 101 101 100 99 99 98 99 100 100 101 101 100 100 99 99 101 101 100 100 100 100 100 100 101 101 100 100 100 100 99 99 101 99 98 98 91 82 79 74 70 72 74 73 70 68 68 69 65 60 59 58 51 45
11 10 10 9 8 8 8 9 9 9 9 8 8 10 9 9 9 9 27 51 63 73 87 92 93 97 100 100 98 98 100 98 98 101 101 101 101 100 100 99 99 100 100 101 101 99 100 101 100 100 101 99 99 100 99 101 100 100 101 100 99 101 100 97 99 102 98 99 102 97 90 85 75 69 70 69 66 68 70 68 64 60 57 56 54 47 42
13 13 12 11 10 9 9 11 11 9 10 10 11 12 12 12 12 14 22 35 57 86 99 100 101 98 95 99 100 99 101 99 99 102 101 100 101 99 100 101 100 100 100 99 100 99 100 101 100 100 101 99 99 100 99 101 101 99 100 100 99 100 100 99 100 100 99 100 100 100 101 91 74 67 69 69 70 72 70 66 61 59 57 54 49 44 41
15 15 15 14 13 12 10 11 12 11 11 12 15 16 15 13 15 26 34 33 50 89 105 99 99 97 94 100 101 98 101 100 100 102 100 98 100 100 100 101 100 100 99 98 100 100 100 100 100 100 101 100 100 100 99 100 101 100 100 100 100 100 99 100 101 99 100 100 99 103 101 82 69 73 74 72 76 77 70 65 62 60 58 53 45 40 36
16 16 17 16 16 14 12 13 14 13 12 14 18 18 17 19 23 31 38 30 38 78 104 97 94 100 99 100 101 99 101 100 98 101 101 99 100 100 100 101 101 99 98 99 101 100 99 100 100 100 101 100 100 100 100 100 100 100 100 100 100 100 100 100 100 99 100 100 101 101 89 73 75 86 81 75 80 80 72 66 63 59 57 52 45 39 33
18 18 17 17 18 16 15 16 15 15 13 14 18 20 18 21 26 30 37 31 24 51 88 97 96 101 100 99 101 101 100 100 99 100 101 100 100 100 100 101 101 99 98 100 102 100 100 100 100 101 100 100 100 100 100 100 100 100 100 100 100 100 100 100 100 100 100 100 100 97 86 79 83 88 85 82 82 79 75 71 66 61 58 52 45 39 33
21 20 19 19 20 19 19 19 17 16 14 13 18 24 23 23 25 31 41 39 25 36 70 90 93 97 99 98 101 101 99 100 100 99 100 100 100 101 100 100 101 100 99 101 102 100 100 100 100 100 100 99 100 100 99 100 100 100 100 100 100 100 100 100 100 100 99 99 100 98 94 88 81 79 81 81 79 80 80 75 68 64 61 54 46 39 34
23 23 23 22 23 24 24 23 20 17 16 18 23 27 27 31 37 41 46 46 39 43 64 81 90 98 103 100 99 101 101 100 100 99 100 100 100 101 100 100 101 100 99 100 100 98 100 101 100 100 100 100 100 100 99 100 100 100 100 100 100 100 100 100 100 99 98 99 100 100 96 88 82 81 80 78 79 83 81 75 69 64 62 55 47 41 37
27 27 27 27 26 27 26 23 21 20 20 26 31 30 33 41 46 45 46 47 44 42 56 81 98 103 103 100 99 101 101 100 100 100 100 100 100 100 100 100 99 99 99 100 100 100 102 102 100 100 100 99 100 100 99 99 100 99 99 100 100 100 100 100 100 99 99 100 100 99 96 90 87 88 86 82 83 85 83 79 72 65 62 57 49 43 38
32 31 32 30 27 27 25 22 28 38 42 43 41 39 45 53 54 50 49 47 39 36 53 84 103 102 100 100 100 100 100 99 100 101 100 100 101 100 100 100 99 99 100 101 101 102 103 102 101 101 100 99 100 100 98 98 99 99 100 100 100 100 100 100 100 99 100 101 99 98 98 95 91 91 91 88 88 89 87 82 73 67 65 58 50 45 39
34 33 31 28 25 23 22 21 31 56 76 77 67 58 57 59 58 56 55 50 40 39 58 86 101 101 99 100 99 99 100 99 100 100 99 100 101 101 100 99 99 100 100 100 101 102 102 101 100 102 102 100 99 99 98 98 98 98 100 101 100 100 100 100 100 99 100 102 99 97 99 97 92 93 95 95 97 96 90 83 76 70 65 57 51 46 41
29 27 23 23 21 18 23 25 28 53 87 99 92 78 65 59 59 60 61 54 42 41 59 86 101 101 98 99 100 100 100 100 100 100 99 98 98 99 100 101 101 100 100 100 101 100 100 100 99 101 102 100 98 99 100 98 98 99 101 101 100 100 100 99 99 99 99 101 100 97 98 95 90 93 99 100 100 97 91 85 79 71 63 57 51 48 43
23 20 19 21 17 17 28 33 32 57 92 104 99 87 71 66 71 73 68 59 52 55 67 82 96 101 100 99 100 100 100 101 100 100 100 99 97 98 100 98 96 97 99 100 101 100 100 100 100 100 100 98 99 101 98 95 98 101 101 100 99 100 100 98 97 99 101 101 98 95 93 91 90 95 100 100 97 92 88 85 79 70 63 58 53 49 46
25 23 22 21 18 21 29 32 43 77 102 102 98 93 79 75 82 80 69 66 73 83 84 84 92 101 101 99 100 100 100 101 100 100 101 99 99 100 100 95 93 96 99 100 101 102 101 100 99 99 99 100 100 98 94 93 98 100 100 101 100 98 99 96 94 98 102 99 95 92 92 94 96 99 101 100 92 85 83 82 77 70 64 60 56 50 45
36 32 26 25 28 35 37 41 65 96 103 99 101 94 77 74 78 73 71 81 92 98 97 94 98 102 100 99 100 100 100 100 100 100 100 99 100 100 100 99 98 100 100 99 101 102 101 101 100 99 101 101 99 97 97 99 99 97 99 103 100 97 97 96 96 100 102 99 98 97 98 100 100 99 100 99 89 81 80 80 76 71 65 60 55 49 43
53 44 36 36 43 50 56 69 90 102 99 101 103 84 66 69 72 69 78 94 100 100 101 101 102 101 99 99 100 100 100 100 100 100 100 100 99 99 100 100 100 100 99 99 100 101 100 101 101 101 101 100 98 99 100 102 101 98 99 101 99 97 98 99 99 101 101 100 100 100 101 101 98 95 97 97 90 82 79 77 74 71 65 59 54 47 41
59 52 48 49 52 65 82 95 100 99 100 105 97 74 62 68 72 76 90 101 100 99 101 101 101 100 100 100 100 100 101 100 100 100 100 100 100 100 100 100 99 100 100 99 100 101 100 99 100 100 99 99 99 100 100 101 102 100 98 99 98 98 100 99 99 101 101 101 101 101 101 99 96 94 95 92 87 81 76 74 73 70 64 57 51 45 38
54 53 52 50 55 76 97 102 98 99 104 103 86 67 64 72 80 92 102 103 101 102 102 100 101 102 101 100 100 101 101 101 100 100 100 100 100 100 100 100 100 100 100 100 100 100 100 100 100 100 99 99 100 100 101 102 100 98 99 100 99 99 100 99 99 101 102 101 100 101 101 97 95 95 93 87 81 77 75 73 71 66 59 52 46 40 36
49 47 47 53 69 89 100 100 98 101 105 100 83 70 74 85 95 101 103 101 102 104 102 99 99 99 99 97 96 98 100 101 100 100 100 100 100 100 100 100 100 100 99 100 100 100 100 100 99 99 99 100 100 102 102 101 98 96 98 99 99 99 100 100 100 100 99 98 100 100 100 97 94 92 89 84 78 74 72 70 65 58 52 46 40 36 34
41 44 58 77 92 98 99 100 101 103 104 96 81 74 85 97 100 100 101 102 102 100 99 99 99 99 99 97 96 98 98 97 97 100 101 101 101 101 100 100 100 100 100 100 101 101 101 99 98 99 100 100 100 102 103 102 98 94 93 94 98 100 100 99 100 99 97 98 100 99 98 97 93 88 85 82 76 70 66 63 57 51 46 41 36 34 32
41 60 84 99 102 99 99 101 100 101 101 90 77 78 89 96 98 100 101 101 101 99 99 101 100 100 100 98 97 98 98 97 96 96 99 102 101 101 100 100 100 100 100 101 101 101 101 100 100 101 102 101 101 103 104 102 97 91 91 95 100 101 101 100 99 96 95 99 102 100 98 94 89 84 80 75 69 64 59 54 49 44 40 37 35 33 30
62 88 100 101 99 99 101 100 99 101 100 87 77 81 88 91 98 102 100 99 101 100 100 100 100 100 101 99 96 94 95 96 94 92 97 102 101 100 100 100 100 100 100 100 101 101 101 101 100 101 101 102 102 103 102 98 92 90 95 101 102 101 101 99 96 94 96 100 101 98 92 83 78 76 73 67 61 56 51 47 44 40 37 34 32 29 27
88 102 101 99 99 100 101 99 99 102 100 88 78 80 86 93 100 102 100 100 101 100 99 100 100 100 101 100 95 89 89 92 91 90 96 101 100 100 101 100 100 101 100 99 100 101 100 100 100 100 100 100 102 102 100 97 95 95 99 102 102 100 98 96 94 95 95 95 93 86 78 71 68 67 64 58 53 49 45 41 38 35 32 30 27 25 23
103 100 98 100 100 98 99 99 98 100 101 93 85 84 91 98 101 101 101 102 101 99 100 100 100 100 101 98 91 83 81 84 86 90 97 100 100 100 100 100 100 100 99 99 100 100 100 100 100 100 100 100 100 100 100 101 100 99 101 102 101 97 94 92 91 88 85 82 78 72 66 63 61 58 53 50 46 41 38 36 33 30 28 25 23 22 20
98 95 98 102 100 99 101 101 99 99 101 100 96 94 97 101 100 100 101 101 99 99 100 99 100 101 99 92 85 79 78 80 85 94 100 100 99 100 100 100 100 99 99 100 100 99 100 100 100 99 100 101 100 99 100 101 100 101 103 101 94 89 87 84 82 78 75 72 67 62 59 58 54 49 46 42 39 35 33 30 27 25 23 21 19 19 18
87 90 97 100 100 101 101 101 101 102 102 102 99 93 93 100 101 100 100 100 99 100 100 100 101 99 92 83 77 77 81 86 91 98 101 100 100 100 100 100 100 99 99 99 99 100 100 100 100 101 100 99 98 97 95 95 99 103 102 93 85 82 81 78 75 72 68 64 59 55 53 51 47 42 39 36 32 29 27 25 23 21 20 19 18 18 17
89 91 95 98 101 102 101 100 103 103 100 96 89 84 89 99 102 99 99 101 100 100 100 100 101 98 89 80 78 80 86 93 98 100 100 100 100 100 99 100 100 99 99 100 100 100 100 100 101 101 100 98 95 90 87 93 101 103 95 85 80 79 76 72 69 67 61 57 53 49 46 42 38 35 31 28 26 24 22 20 20 19 20 21 21 22 25
100 100 98 98 99 100 101 102 103 100 94 89 86 86 92 99 101 99 100 100 100 100 100 99 100 100 96 91 90 92 94 97 100 101 100 100 101 100 100 101 100 100 100 101 101 101 101 101 101 101 100 96 88 83 87 97 101 93 83 77 75 73 70 67 64 60 54 50 45 40 36 33 30 28 26 24 23 22 21 21 21 21 26 30 32 34 39
102 102 100 101 101 101 101 101 99 96 93 93 97 98 99 100 100 100 100 100 99 100 101 99 99 101 100 98 99 100 99 99 100 100 100 100 101 100 100 101 102 102 100 99 100 102 103 102 99 98 95 89 84 86 92 95 89 80 75 73 70 66 63 60 56 50 44 40 35 31 28 26 25 25 26 27 26 25 26 29 30 31 37 43 46 46 48
100 100 100 102 102 99 95 93 96 99 99 99 102 102 100 101 101 100 99 100 100 100 100 100 100 101 100 100 100 100 99 101 101 100 100 101 100 100 101 102 102 102 101 100 102 103 102 98 93 90 88 85 84 85 85 81 76 73 69 65 60 56 51 46 41 36 32 29 27 26 24 22 22 25 30 37 40 41 42 44 45 45 50 56 57 56 55
100 100 99 95 89 82 78 82 93 102 102 99 98 96 96 97 99 100 101 100 99 100 100 100 100 101 100 100 101 100 100 102 101 100 101 101 99 99 101 102 102 102 101 101 101 99 95 90 86 85 84 81 78 74 70 67 65 62 56 51 46 41 36 33 31 28 26 27 28 27 25 25 29 34 39 45 50 53 56 59 60 61 62 62 60 55 49
97 99 101 98 91 83 79 84 94 100 100 95 91 89 90 89 89 94 98 98 98 101 103 101 101 102 100 100 101 101 99 100 101 100 98 96 94 95 95 96 96 95 94 95 95 91 86 83 81 78 74 68 64 60 57 54 51 47 42 38 34 31 29 28 26 24 26 31 36 37 38 39 42 44 46 50 53 59 67 72 73 72 67 61 53 45 37
100 101 99 96 92 84 82 89 96 98 98 96 92 90 89 83 79 83 89 91 93 99 102 101 101 100 98 97 99 99 97 96 97 97 94 91 89 88 86 87 87 85 83 85 86 82 77 74 71 66 63 61 60 56 50 45 42 39 35 33 32 30 28 26 26 30 35 42 49 51 50 49 47 47 51 58 65 71 77 79 76 69 60 51 43 36 31
100 97 90 87 87 84 86 93 95 92 92 93 90 88 87 80 75 75 77 80 86 95 101 101 99 97 95 93 94 97 97 95 94 94 94 93 90 85 82 84 83 78 77 79 78 74 71 66 61 59 61 64 63 58 51 44 40 38 37 38 39 37 33 33 40 48 52 55 57 55 52 53 56 61 68 75 78 79 78 73 67 59 51 44 40 36 34
101 98 93 93 95 97 99 100 94 85 80 77 74 74 74 72 68 67 67 69 75 84 91 93 92 89 88 88 88 89 91 90 90 92 94 93 89 83 81 81 77 74 75 78 75 69 63 57 54 58 61 59 55 50 45 42 41 42 43 46 48 48 47 51 57 61 60 59 59 59 62 69 77 83 85 84 79 74 69 63 56 50 45 41 40 38 36
102 102 102 101 100 100 101 99 88 74 65 62 60 59 60 60 58 57 58 59 62 68 77 81 79 73 71 73 76 79 81 83 83 85 86 85 83 79 75 72 69 68 69 68 63 58 54 51 53 57 57 53 50 47 43 43 46 48 49 52 55 57 59 63 67 67 67 67 69 72 76 80 82 82 79 74 69 65 61 58 54 50 47 46 45 45 44
99 100 100 97 96 95 95 92 80 61 51 52 53 52 56 62 63 63 67 72 74 76 78 76 71 65 61 59 60 64 69 73 74 73 73 74 73 69 65 62 60 59 58 57 54 51 47 47 52 58 59 58 57 53 49 48 51 54 57 62 66 68 70 72 75 76 77 78 78 78 78 77 75 72 67 63 60 60 58 57 56 55 53 52 53 54 55
90 91 87 84 87 86 82 76 64 49 44 50 57 62 71 82 86 85 85 85 84 81 77 71 64 58 52 49 51 54 57 60 63 65 66 65 62 58 54 50 48 47 48 50 48 46 48 54 60 65 69 68 64 60 59 58 57 58 63 70 77 80 82 83 84 83 83 82 82 80 77 73 68 64 60 56 53 52 52 53 53 53 53 53 53 54 55
77 80 80 81 83 80 71 62 57 53 55 63 72 78 82 86 89 90 87 81 76 72 69 66 61 54 48 48 52 53 51 49 52 56 58 56 54 53 49 43 40 39 39 39 41 48 62 71 73 73 74 71 66 67 72 73 68 66 69 73 79 85 90 91 91 90 88 85 81 76 72 67 63 60 59 57 55 53 51 50 50 49 49 49 48 48 49
65 69 72 76 80 78 72 66 65 69 71 70 72 75 77 76 78 81 81 77 72 64 59 59 59 56 55 57 57 55 53 50 47 48 48 47 49 52 49 44 41 39 36 38 51 68 80 83 80 79 79 73 69 75 86 88 85 83 81 79 80 86 91 93 93 90 86 81 76 72 69 66 63 60 56 53 50 46 42 39 38 37 36 35 35 36 37
66 70 72 73 74 74 71 66 65 67 68 66 68 77 84 84 80 79 81 83 79 70 64 63 59 56 62 71 72 69 65 57 49 47 47 44 44 47 47 44 43 41 39 46 64 80 86 85 82 81 79 77 80 90 98 99 97 97 95 90 89 92 93 94 92 87 81 77 72 66 61 54 48 43 39 35 34 33 32 31 31 30 29 30 30 30 30
69 69 68 66 64 62 62 62 65 71 76 77 79 85 90 90 88 89 93 99 97 88 81 77 68 61 66 78 84 82 76 65 56 52 49 42 40 44 44 41 39 40 41 47 57 68 79 87 90 88 88 89 93 97 100 101 103 104 102 100 99 99 97 95 89 81 73 65 56 47 40 34 29 28 28 27 28 29 29 29 29 29 30 31 31 31 31
67 66 64 63 65 71 74 74 77 85 90 89 88 90 94 97 99 99 99 101 102 95 88 85 82 76 72 74 79 84 83 75 66 60 56 52 49 47 44 43 46 48 51 56 64 74 87 98 101 99 98 99 98 98 101 104 105 104 103 103 103 99 93 84 74 63 53 44 36 31 29 29 28 28 28 27 29 32 35 37 39 40 40 41 40 37 36
68 70 68 69 77 87 90 86 86 92 93 90 88 93 99 100 98 94 92 95 98 95 91 92 95 95 88 82 83 88 90 86 82 81 82 83 80 73 69 72 78 77 75 79 86 92 98 102 102 101 101 102 101 101 102 102 102 103 103 101 95 85 73 62 52 43 37 33 31 32 35 35 34 33 33 35 39 45 50 55 58 58 57 58 57 54 51
79 78 75 74 81 90 89 83 82 87 90 89 89 94 97 95 89 88 92 96 96 95 95 98 101 101 98 94 95 98 99 97 97 98 98 99 98 96 94 97 98 95 92 94 97 99 100 102 102 102 102 103 103 103 103 102 102 100 93 83 72 61 51 44 39 35 33 35 37 40 41 41 41 41 42 45 49 54 60 65 68 67 66 67 67 65 64
Wind_Speed
87 86 85 84 82 80 80 79 79 78 77 76 75 75 73 72 71 71 71 72 73 74 74 73 72 71 69 66 64 63 64 66 66 64 62 61 61 59 58 57 55 54 52 51 49 48 46 45 43 42 41 40 40 40 39 40 39 37 38 37 35 36 35 34 33 29 29 32 30 29 30 29 30 30 28 29 29 29 29 28 27 30 31 29 30 32 27
85 84 83 81 79 77 76 76 77 76 76 76 75 75 74 74 73 72 72 73 74 76 77 76 74 73 73 71 68 64 63 64 67 67 66 65 64 63 61 60 58 57 55 54 52 51 49 47 45 44 43 42 41 40 40 41 42 40 39 38 37 37 37 36 35 32 33 35 34 32 31 29 30 30 29 30 29 31 32 29 30 33 32 29 31 32 26
78 77 76 75 72 71 71 71 72 72 72 72 72 73 74 74 74 73 73 74 75 76 77 77 76 75 74 74 72 70 65 62 62 67 69 68 67 65 64 63 61 60 58 57 55 54 52 50 48 46 45 44 42 41 40 41 42 42 41 39 38 38 38 37 36 36 37 38 35 33 31 30 32 32 31 30 30 32 31 31 34 34 30 29 32 29 23
69 68 68 67 65 64 65 66 66 66 67 67 68 69 71 72 73 73 74 75 75 75 76 77 78 78 76 75 74 72 69 63 59 61 67 69 69 67 66 65 64 63 62 60 58 56 54 53 52 49 47 46 44 42 42 41 42 43 42 41 40 40 38 37 37 36 35 34 35 35 35 33 31 31 31 30 31 32 31 33 33 30 28 30 29 27 24
61 60 60 60 58 58 60 62 62 62 63 63 63 65 67 69 71 72 73 75 75 76 75 76 78 79 78 76 73 70 69 67 62 61 63 67 69 68 67 66 66 66 64 63 61 59 56 55 54 51 50 49 46 44 43 42 43 43 43 43 43 41 40 40 39 37 35 34 35 37 36 35 32 30 30 31 32 32 32 32 30 27 29 30 24 24 27
56 56 56 55 53 54 56 58 61 61 60 60 60 61 63 65 68 70 72 73 74 75 75 75 76 77 78 76 73 69 67 67 66 64 62 63 66 67 65 64 65 66 66 65 64 61 59 57 55 53 52 51 48 45 44 43 43 43 43 44 43 42 43 43 41 40 39 38 38 38 37 36 34 32 31 31 31 31 31 30 28 27 30 29 24 26 30
54 54 54 53 52 52 53 56 59 60 60 58 57 58 59 61 64 66 68 70 71 72 73 73 73 73 73 74 73 70 67 65 64 64 63 62 63 64 64 63 63 65 66 66 65 64 61 58 55 54 53 53 51 47 45 45 45 44 44 43 44 43 43 43 41 40 41 40 40 40 39 39 39 37 36 35 33 32 31 30 28 28 29 28 27 30 32
54 54 54 53 52 52 53 55 57 58 59 58 56 56 57 58 60 62 65 66 67 67 68 69 69 68 68 68 68 68 67 64 61 62 65 64 62 62 62 62 63 64 64 65 65 63 61 58 56 54 54 54 53 48 43 42 44 46 46 46 47 46 46 46 43 41 42 41 40 41 41 42 42 41 41 40 36 34 33 32 30 30 30 29 30 33 31
54 54 54 54 53 53 53 55 56 57 58 58 56 56 57 57 58 59 62 64 63 63 63 63 64 65 64 62 62 62 63 61 60 62 64 64 63 61 60 60 62 64 64 63 62 61 59 58 55 54 55 55 54 51 46 43 43 44 45 47 48 48 48 48 44 42 43 40 39 40 41 42 44 44 44 42 38 35 35 34 33 32 32 31 32 33 30
56 56 55 55 55 54 54 55 56 57 57 57 57 56 56 57 57 57 60 62 61 60 61 60 62 62 60 58 58 58 58 57 58 61 62 62 62 61 59 59 60 62 62 62 60 58 58 57 55 54 55 55 54 54 52 49 47 46 46 47 47 48 49 48 45 43 42 40 38 38 39 43 45 46 45 42 38 37 37 36 35 34 33 34 34 32 30
57 56 56 56 56 56 55 55 56 56 56 56 56 57 57 57 56 56 58 60 59 59 59 60 61 59 57 57 57 56 55 56 57 59 60 60 61 59 58 57 58 59 59 59 59 58 57 56 55 54 55 55 53 52 51 50 48 47 46 46 46 47 48 47 46 45 42 39 38 37 41 46 45 44 45 43 39 39 39 38 37 35 34 35 35 33 32
59 58 58 57 57 57 56 56 56 56 56 56 56 57 57 56 56 56 58 59 58 58 59 58 58 57 55 56 57 55 54 55 56 58 58 59 59 58 57 57 57 56 55 56 57 58 56 56 55 55 55 55 54 52 51 50 48 46 46 46 46 47 47 46 46 46 44 42 41 42 47 49 45 44 47 46 41 40 40 40 38 36 35 35 35 35 35
61 61 60 59 59 58 57 57 58 56 56 56 56 57 57 56 56 56 58 58 58 59 59 56 56 56 54 53 55 56 55 54 55 57 58 58 59 59 57 57 56 55 54 54 56 57 56 56 56 56 56 56 54 52 52 51 49 47 46 45 45 46 46 46 46 45 45 46 47 48 49 49 47 46 47 47 43 40 40 40 38 37 37 36 36 36 35
65 64 63 62 61 60 58 59 58 57 56 56 56 57 57 56 55 55 56 56 56 57 58 55 54 54 52 51 53 55 55 55 55 57 57 57 57 58 57 55 55 54 54 53 54 56 56 57 57 57 57 56 55 53 53 52 51 49 46 44 43 43 44 45 45 43 43 45 47 48 48 49 50 49 48 48 44 41 40 41 39 38 37 36 35 36 36
68 67 66 65 63 60 59 59 59 57 56 55 55 56 56 54 53 53 54 54 54 55 56 52 50 51 50 50 51 53 54 54 54 56 58 57 55 54 54 54 53 53 54 54 53 53 54 55 57 57 56 56 55 54 53 52 50 48 43 39 39 40 41 41 42 41 41 42 44 46 48 49 49 49 49 48 44 41 41 42 41 39 37 35 35 36 36
72 71 70 68 65 62 60 59 57 56 55 54 54 54 53 52 51 52 53 52 53 54 52 49 49 51 50 50 51 52 52 53 52 53 56 57 56 53 51 52 53 53 53 53 52 51 52 52 53 54 55 55 54 53 52 50 47 45 41 39 40 42 43 43 43 43 44 45 45 45 46 46 46 46 47 46 44 42 41 42 43 41 38 36 36 36 36
76 75 73 71 67 63 60 57 55 53 52 51 51 51 50 49 49 51 52 51 51 51 50 48 49 51 51 51 51 51 50 51 51 52 53 54 54 52 51 51 51 51 52 52 51 51 52 52 51 51 52 53 52 51 49 47 45 43 42 41 42 44 45 47 47 47 48 49 48 46 45 46 46 46 47 45 43 42 42 44 45 42 39 39 38 36 36
79 77 75 72 68 63 59 56 52 50 50 49 49 49 49 48 47 49 50 49 48 48 49 50 49 48 49 50 49 49 48 47 47 47 48 50 49 49 49 51 51 51 51 51 49 48 50 52 52 50 49 48 48 47 46 44 43 42 41 41 42 44 46 47 48 48 48 48 48 45 45 46 46 46 45 44 42 42 44 45 44 42 41 39 37 36 36
79 77 74 71 66 62 58 54 52 52 52 50 48 48 48 46 45 47 47 46 45 46 48 50 48 45 45 46 47 46 45 45 43 41 41 44 44 43 44 49 53 54 54 54 53 51 52 53 53 52 50 48 47 46 45 44 42 42 42 42 42 45 46 47 48 47 46 46 46 44 44 46 45 44 42 42 42 44 45 44 43 42 41 39 37 36 36
74 72 70 66 62 58 54 51 51 53 52 50 47 47 46 43 42 43 44 42 43 44 46 49 48 43 41 42 43 43 43 43 42 39 37 37 38 39 40 43 47 50 53 55 57 58 58 57 56 54 52 51 49 47 46 44 43 43 43 42 43 45 46 47 47 46 45 45 44 44 44 44 42 40 39 40 43 44 44 44 43 41 39 38 37 36 37
64 63 62 59 56 55 52 51 51 51 50 48 47 46 45 42 39 40 41 41 42 42 44 47 47 43 40 40 40 40 42 41 38 36 35 36 38 41 42 41 41 44 48 52 55 58 59 59 57 55 52 50 48 46 45 45 44 44 43 43 44 45 46 46 45 43 43 43 43 42 42 41 40 39 38 39 42 43 43 43 42 39 37 36 36 36 37
53 54 53 52 51 50 49 49 50 49 47 45 44 43 42 40 37 38 39 40 40 39 40 42 42 39 37 37 37 37 39 39 38 36 35 36 39 43 46 46 45 46 47 49 51 54 56 56 55 52 50 49 48 46 45 45 45 44 44 45 46 46 45 44 43 42 42 41 41 40 39 38 40 40 38 40 42 42 40 39 38 36 35 35 35 35 36
46 47 47 47 48 48 48 48 48 46 43 42 40 39 38 37 36 37 37 37 37 36 36 38 36 31 29 29 29 31 33 34 35 36 36 37 39 42 45 48 50 50 50 50 51 54 55 54 52 50 49 50 48 46 45 45 44 44 44 44 44 44 44 43 42 41 41 40 40 39 38 38 39 40 39 40 41 40 38 37 35 34 34 35 36 36 35
42 43 43 44 47 49 47 46 45 41 38 40 40 38 37 37 36 35 35 35 34 32 32 33 31 28 26 25 25 27 29 30 31 33 35 36 39 42 44 47 51 53 54 53 52 53 54 54 52 51 51 50 47 45 44 44 44 43 43 43 42 41 41 42 42 39 37 37 37 37 37 38 40 40 40 41 40 38 36 34 33 33 34 36 37 37 36
39 40 41 44 49 51 46 42 40 37 37 41 41 38 37 37 36 34 34 34 32 30 29 29 29 29 28 27 26 28 29 29 29 31 32 34 36 38 41 45 48 53 55 55 56 56 57 56 55 52 50 48 44 43 43 43 43 43 42 41 41 39 39 39 39 37 36 35 36 36 37 38 39 39 39 39 37 35 33 32 33 34 35 36 37 37 37
36 38 41 44 49 49 43 38 36 36 40 42 40 37 37 38 36 34 34 32 31 29 27 25 26 27 28 28 27 28 28 28 27 27 29 31 32 34 36 38 42 46 49 51 53 54 54 54 52 49 46 44 42 41 41 41 42 41 41 40 39 37 37 37 37 37 37 38 39 39 38 38 38 37 36 35 34 33 33 33 34 35 36 37 37 37 37
35 39 41 42 42 41 40 40 39 38 40 41 39 38 39 37 33 32 32 32 30 27 26 26 26 27 28 28 29 29 28 27 26 24 25 27 28 30 32 33 35 38 41 42 44 45 45 46 45 43 42 41 40 39 38 39 39 39 40 39 38 37 37 36 37 38 39 40 40 39 38 36 35 34 33 32 33 34 35 35 36 36 37 37 37 37 38
37 40 38 35 34 36 39 43 41 38 38 38 38 38 37 34 30 29 31 34 34 29 27 28 28 29 31 31 32 32 31 29 25 23 23 24 24 26 28 30 31 34 36 38 39 39 39 39 39 38 37 37 36 36 36 37 38 38 38 37 36 36 36 36 38 39 39 39 37 36 34 33 32 31 31 33 34 36 36 36 36 37 37 37 38 38 38
39 37 32 30 31 34 38 40 36 33 34 36 38 37 34 31 29 27 28 33 36 34 31 30 29 30 32 33 34 33 32 30 26 23 23 24 22 22 24 26 27 29 31 33 34 34 34 34 33 33 33 33 33 34 35 36 36 36 36 35 34 35 35 36 38 39 37 36 34 32 31 31 31 30 31 33 35 36 37 37 37 37 37 38 39 40 39
37 32 29 30 32 34 35 35 33 32 33 34 35 34 31 28 28 27 27 31 34 35 34 32 30 31 33 34 35 33 31 29 26 24 24 24 22 22 23 24 25 27 28 29 30 29 30 30 29 30 31 32 33 34 34 35 35 35 34 33 33 34 35 36 36 35 34 33 31 30 30 31 31 31 32 33 35 37 37 37 37 38 39 39 40 40 39
36 34 34 35 35 33 32 33 36 37 36 35 34 31 27 26 27 27 27 29 32 34 35 33 31 32 34 35 35 33 31 27 25 25 26 25 23 23 25 26 27 28 28 28 28 29 29 29 28 29 30 30 32 32 33 33 34 33 31 31 32 34 35 34 34 33 33 31 30 30 30 31 31 32 33 34 36 37 37 37 38 39 39 39 39 38 38
39 37 37 36 34 31 29 33 38 38 36 35 34 30 27 26 26 25 25 26 29 32 33 33 31 31 33 33 33 32 30 27 25 25 25 25 25 26 26 26 27 27 28 28 29 29 28 28 28 29 29 30 31 32 32 32 31 29 28 30 33 34 33 33 33 32 32 30 30 30 30 31 32 33 34 35 36 36 36 37 37 38 38 38 38 38 39
36 35 34 33 33 32 30 32 34 33 32 33 32 29 27 27 26 25 25 26 28 29 31 31 30 30 31 31 31 30 29 27 25 25 25 25 26 26 25 24 25 26 27 28 28 28 28 28 28 29 30 30 31 31 31 30 28 27 28 31 32 32 32 32 32 31 30 30 31 31 31 31 33 35 35 35 35 36 36 36 36 36 36 37 37 38 38
31 30 29 29 31 34 35 34 32 31 31 31 29 27 27 28 28 27 27 28 29 29 29 27 25 24 26 28 29 28 27 26 26 27 27 28 28 27 25 24 25 26 26 27 28 28 28 28 29 29 29 30 31 32 31 28 27 27 29 31 31 31 32 31 30 29 30 31 31 31 31 32 33 34 35 35 35 35 36 36 35 35 35 35 35 35 35
30 28 28 29 30 32 34 33 32 30 29 28 27 27 27 29 30 29 27 28 30 29 27 25 23 21 21 23 24 24 25 27 29 28 28 29 29 28 27 26 26 26 27 27 28 28 28 29 29 29 29 30 32 31 28 26 27 29 30 31 30 31 30 29 29 29 30 31 31 32 32 32 32 33 34 35 35 35 34 34 34 34 34 34 34 33 33
32 32 32 32 33 32 30 29 28 28 28 27 27 27 27 28 29 29 28 29 30 29 27 26 25 23 21 21 22 24 26 29 29 28 27 27 27 27 26 26 26 27 27 28 28 29 28 29 29 29 29 30 29 27 25 26 28 29 30 30 30 30 29 28 29 30 31 31 32 32 32 32 33 33 33 33 33 33 33 32 32 32 32 32 32 32 32
35 35 33 33 33 32 30 27 27 28 28 28 26 25 25 25 26 28 29 29 29 29 28 26 26 25 23 21 22 23 25 26 27 25 24 24 24 24 24 25 25 25 25 25 26 26 26 27 27 28 28 26 25 25 26 27 28 29 29 29 29 29 28 28 29 30 31 31 31 31 32 33 33 32 32 31 31 31 31 31 31 30 30 30 31 31 31
32 33 37 38 34 29 27 26 26 27 27 25 23 22 23 23 23 26 28 29 29 29 28 27 26 25 24 22 22 23 24 24 24 23 22 22 22 23 23 23 24 24 24 24 25 25 25 26 26 26 25 24 24 26 27 27 28 29 29 28 28 28 28 28 29 30 30 30 30 31 31 31 31 31 31 31 30 30 30 30 30 30 30 30 30 30 30
31 33 38 40 34 27 25 25 25 24 23 22 21 22 23 23 23 24 25 27 28 28 28 28 27 26 26 25 23 23 24 24 24 23 23 23 23 23 24 24 24 25 25 25 26 26 26 26 26 25 25 24 25 26 27 27 28 28 27 27 28 28 28 28 29 30 29 28 28 29 30 30 29 30 30 30 30 30 30 29 29 29 29 29 29 29 29
33 32 31 33 32 28 26 25 24 23 22 22 22 23 24 24 23 23 23 24 26 27 27 27 27 27 27 27 26 25 26 26 26 26 26 25 25 25 25 25 25 26 26 26 26 26 26 26 25 25 24 24 24 25 26 27 26 26 26 27 27 27 27 28 29 29 28 27 27 27 28 28 28 29 28 28 28 28 28 28 28 28 28 29 29 29 28
34 30 27 28 29 28 26 26 24 23 23 23 23 23 24 24 23 23 22 23 24 25 26 26 26 27 26 26 26 27 28 28 28 28 27 27 27 26 26 26 26 25 25 25 25 25 25 25 24 24 24 24 23 24 25 25 25 25 25 25 26 26 27 27 26 25 24 24 25 26 26 27 27 27 27 27 27 27 27 27 27 28 28 28 28 28 28
29 28 27 28 28 27 26 25 24 23 22 22 23 23 24 24 23 23 23 23 23 24 25 26 26 26 26 26 27 28 29 29 29 29 28 27 27 27 26 26 26 25 25 25 25 25 25 24 24 24 24 23 23 23 23 23 23 23 24 24 25 25 24 23 22 22 23 24 25 25 26 26 26 25 25 25 25 25 26 27 27 28 28 28 28 29 29
24 24 24 23 23 23 23 22 21 20 20 20 21 21 21 22 22 23 24 24 24 25 25 25 26 26 25 26 27 28 28 28 28 28 27 27 26 26 26 26 26 25 25 25 25 25 24 23 22 23 22 22 21 21 21 21 21 22 23 23 23 22 21 21 22 23 23 24 24 24 24 23 23 23 23 24 24 25 26 26 27 27 28 28 29 29 30
21 22 21 18 18 20 20 20 19 19 18 18 18 17 17 18 19 21 22 23 24 24 24 25 25 25 25 25 25 26 27 27 27 27 27 26 26 26 26 26 26 26 25 25 24 24 23 22 22 21 21 20 19 19 20 20 20 21 21 21 21 21 21 21 22 22 22 22 22 22 22 22 23 24 24 25 26 26 26 27 27 27 28 28 28 29 29
18 19 18 18 19 20 20 20 19 18 19 18 17 16 16 18 20 22 23 23 24 24 25 25 26 26 26 25 25 25 26 27 26 26 26 26 26 26 26 26 26 25 25 25 24 23 22 21 21 20 20 20 20 20 19 19 19 19 20 20 21 21 21 21 21 21 21 21 22 22 23 24 25 26 27 27 28 28 29 29 29 29 30 30 30 31 31
17 17 17 18 19 20 20 20 19 19 19 18 18 18 19 20 22 23 23 23 24 24 25 26 27 27 27 27 26 26 27 27 26 26 26 26 26 26 26 26 26 26 26 25 24 22 21 20 21 21 21 21 21 20 20 20 20 19 19 20 20 20 20 20 20 20 21 21 22 23 24 25 26 27 28 29 30 31 32 33 33 33 34 34 34 34 35
14 16 17 17 18 18 18 18 18 18 18 18 19 19 20 20 21 22 22 22 23 24 25 26 27 27 27 27 27 27 27 27 27 27 27 27 27 26 27 26 26 26 26 25 23 21 21 22 22 22 22 22 21 21 22 22 21 20 20 19 18 18 18 18 19 19 21 22 24 25 26 27 29 29 31 32 33 34 35 36 36 37 37 37 37 38 38
13 14 16 16 17 17 17 17 17 17 17 17 18 18 19 19 19 20 20 20 22 23 23 25 26 26 25 24 24 25 25 26 26 27 27 27 27 26 26 26 26 25 25 24 23 23 23 23 22 22 23 23 22 22 22 21 21 20 19 18 17 17 18 19 20 22 23 25 26 27 28 29 30 31 32 33 34 35 36 36 37 37 38 38 38 38 38
15 15 16 16 16 17 17 17 16 16 17 17 17 17 17 18 17 17 17 18 19 19 20 20 21 22 23 23 23 22 22 23 24 24 25 25 25 24 24 24 23 23 22 23 25 26 25 24 22 22 22 22 22 22 22 21 21 19 18 18 18 19 20 21 23 25 26 27 28 28 29 30 31 32 33 33 34 35 35 36 36 37 37 37 38 38 39
15 16 17 17 17 17 16 15 14 15 16 16 17 17 17 16 16 15 16 16 16 16 17 16 17 18 20 22 22 21 20 19 20 21 22 22 22 23 23 21 20 21 22 23 24 25 25 24 24 23 22 22 22 22 22 21 21 20 20 20 21 21 23 24 25 26 27 27 27 28 29 30 32 33 33 34 35 35 36 36 37 37 37 37 38 38 39
13 15 16 17 16 15 15 14 14 14 14 14 15 15 15 14 14 13 13 15 17 17 16 15 14 16 18 19 20 19 18 17 17 17 18 19 20 21 19 17 17 20 23 24 24 25 25 26 25 25 23 22 22 22 21 22 22 22 22 22 22 23 24 25 25 26 26 27 27 28 30 31 33 35 35 36 36 35 35 35 35 35 35 35 35 36 36
11 12 14 15 15 15 14 14 13 14 13 13 13 13 14 14 14 13 12 15 19 19 15 13 13 15 16 17 18 18 17 16 15 14 15 16 17 18 18 17 19 21 24 25 26 26 26 26 25 25 23 23 23 22 22 22 22 22 21 21 22 23 24 24 25 25 26 27 28 30 31 33 35 36 36 36 35 33 32 31 31 32 32 32 33 33 34
Wind_Direction
278 277 277 276 276 275 273 272 271 270 269 268 266 265 263 261 259 258 257 256 256 257 257 257 257 258 259 260 261 262 260 257 254 251 249 249 248 248 248 249 250 250 251 250 251 251 251 251 251 251 252 252 253 253 250 246 244 243 244 246 247 249 251 250 252 253 254 254 251 249 249 251 254 257 258 259 262 265 264 264 269 273 274 279 281 281 286
277 277 276 276 276 275 273 272 271 270 269 268 266 264 263 261 259 257 256 255 255 255 256 256 257 257 258 259 260 261 260 258 256 253 250 249 248 248 248 248 248 248 249 249 249 249 250 250 250 250 250 250 251 253 252 248 246 245 244 245 246 247 248 249 249 249 251 253 252 252 253 253 254 255 254 255 257 259 260 262 262 263 268 276 279 280 287
277 276 276 276 275 274 273 272 271 270 268 267 265 263 262 260 258 256 254 254 253 253 253 254 256 256 257 258 258 258 259 260 258 255 252 249 248 247 247 248 248 248 248 248 248 249 249 250 250 249 249 249 249 251 252 250 247 246 246 246 245 245 247 248 247 247 251 257 259 258 256 254 252 253 254 254 255 257 259 261 261 264 269 272 272 276 281
276 276 276 275 275 274 273 272 271 270 268 267 265 262 261 259 257 255 253 252 252 252 252 252 253 254 255 256 257 257 257 258 258 257 255 251 248 247 247 248 248 248 248 248 247 248 248 248 249 248 247 248 247 248 250 250 247 246 246 246 246 246 247 248 248 247 250 256 260 259 257 255 253 253 255 254 255 257 258 258 260 266 270 268 271 278 276
275 275 275 275 275 274 273 273 272 270 268 267 265 263 260 258 256 254 252 251 250 250 250 251 251 252 253 254 255 255 255 255 255 257 257 254 250 247 247 248 248 249 249 248 247 247 247 247 248 247 246 246 245 246 248 248 248 247 246 247 247 247 247 248 248 249 249 251 255 259 261 260 256 253 253 253 253 253 255 258 262 266 266 267 272 276 273
275 275 275 275 274 273 273 272 272 270 269 267 266 264 262 259 257 254 252 251 250 249 249 250 250 251 251 252 253 253 253 253 254 255 256 254 251 250 250 250 251 251 250 249 248 248 247 246 247 247 246 245 244 243 244 245 246 247 246 246 247 246 247 249 250 251 251 250 251 254 257 260 261 258 256 255 254 254 255 259 263 264 266 271 274 270 269
275 275 275 274 273 272 272 271 271 271 270 268 267 266 264 261 259 256 254 253 251 250 249 250 250 251 251 251 251 252 253 253 252 253 253 253 252 252 252 253 253 253 251 250 249 248 248 247 247 247 246 245 243 242 242 244 245 245 245 245 245 245 246 248 249 250 252 253 253 254 256 259 262 263 262 260 259 260 264 266 266 266 268 271 271 268 269
276 276 276 275 273 272 272 272 271 271 271 269 267 266 265 263 260 257 255 254 253 252 251 251 251 252 252 252 251 251 252 252 251 250 250 250 251 252 253 254 254 253 251 251 250 250 249 248 248 248 247 245 244 242 241 241 242 243 244 245 246 245 245 247 247 248 251 253 256 258 259 261 264 265 264 263 263 266 269 269 268 268 268 269 267 268 270
277 277 277 276 275 273 272 272 272 271 271 270 268 266 265 264 262 259 256 254 253 253 253 252 251 250 250 252 252 251 250 250 249 248 247 246 247 249 250 252 253 252 251 250 250 251 250 249 248 247 247 246 244 242 240 240 241 242 244 246 247 247 246 248 247 247 250 252 254 258 261 262 264 265 265 266 269 270 269 269 269 270 271 271 268 269 271
278 278 277 277 276 274 273 272 272 271 270 269 268 266 264 263 262 260 257 254 252 252 254 252 250 249 249 250 250 250 249 247 245 245 244 244 244 245 246 248 249 251 251 250 249 249 249 250 249 248 247 247 246 244 242 242 243 245 246 247 249 249 250 250 248 248 250 251 252 255 259 261 262 265 267 270 272 272 271 272 272 272 274 273 272 273 272
277 277 277 276 276 275 274 273 272 271 270 268 266 264 263 262 261 259 258 255 252 252 254 253 251 250 249 248 247 246 246 245 243 243 244 244 245 245 245 246 247 249 250 250 249 248 248 249 249 248 247 247 246 246 244 243 244 246 248 250 251 252 253 252 250 249 249 250 251 252 255 259 263 266 269 270 271 271 272 273 274 274 273 274 275 276 273
277 277 276 276 276 276 275 274 272 271 269 266 264 263 262 261 260 258 257 256 252 251 254 254 253 251 248 247 246 245 244 244 243 243 243 244 245 245 246 247 248 248 249 249 249 249 248 248 247 246 246 246 246 246 245 244 244 245 248 250 253 254 255 254 253 251 249 248 249 251 255 260 263 264 267 269 268 269 271 273 273 274 273 273 275 276 275
277 276 276 276 275 275 275 273 271 270 268 265 262 261 260 259 258 257 258 257 253 251 254 255 253 251 248 246 245 244 244 244 242 241 241 243 244 245 246 247 248 247 247 248 249 249 248 247 247 245 244 245 245 245 244 245 245 244 245 248 251 254 254 255 257 256 253 251 250 252 256 260 261 262 264 266 266 267 269 270 271 273 273 274 275 275 276
276 275 275 275 275 274 273 271 270 268 266 264 261 259 258 257 257 257 257 257 255 252 253 255 254 251 249 247 244 242 242 243 242 240 239 240 243 245 246 247 248 248 248 247 247 247 247 246 245 244 243 244 244 244 244 245 245 245 245 247 251 253 254 256 258 257 256 254 252 252 254 258 260 262 263 264 264 264 265 266 267 268 269 270 272 273 273
274 274 274 273 273 273 271 269 268 266 264 262 259 257 256 256 256 256 255 256 255 252 251 254 255 251 248 246 244 241 239 239 240 239 238 237 239 242 246 248 248 249 248 247 246 245 245 244 244 244 243 242 243 242 243 244 245 245 245 244 245 247 250 253 256 256 255 253 251 251 253 256 259 262 263 264 264 263 264 265 266 265 265 265 266 266 267
272 272 272 272 271 269 267 265 264 263 261 259 256 255 255 254 254 254 255 255 254 251 249 253 255 252 247 244 244 242 239 238 239 239 238 236 235 236 241 245 247 248 247 246 245 244 243 243 243 244 244 243 242 242 243 244 245 246 245 241 240 242 245 248 250 250 251 252 253 255 256 257 259 261 262 263 263 263 264 265 265 265 265 265 264 264 266
271 270 270 269 268 266 263 260 258 256 256 256 254 253 253 252 253 254 254 254 253 250 248 251 254 252 247 244 244 243 241 239 239 240 239 237 234 233 235 238 240 242 244 245 246 245 244 244 243 245 245 245 244 244 244 244 245 246 246 246 246 247 248 248 249 250 252 255 257 259 258 258 258 259 260 261 262 263 263 263 264 266 265 264 264 266 269
269 268 267 267 265 262 259 255 250 248 249 250 250 249 249 249 250 252 254 255 253 249 246 249 252 251 248 245 244 243 241 239 240 241 242 240 235 231 230 232 234 236 238 241 243 244 246 246 245 245 246 246 247 248 247 246 247 247 248 249 250 250 251 251 252 252 254 256 258 259 258 257 256 256 258 260 262 262 262 262 264 265 264 263 266 268 270
267 266 264 263 261 257 253 248 243 240 241 243 244 245 246 248 249 250 253 255 253 247 245 247 251 251 249 245 243 241 240 238 236 235 238 242 242 236 231 229 230 233 235 237 238 240 243 246 247 247 247 249 254 255 252 249 248 249 249 250 250 251 252 253 253 254 255 257 259 259 258 256 256 257 258 259 259 260 261 262 262 262 263 264 267 269 271
264 262 260 258 254 250 245 240 235 234 235 237 239 241 243 245 246 248 252 253 251 247 244 246 249 251 249 244 241 241 241 239 236 232 231 235 241 244 241 235 232 233 235 237 239 241 244 246 248 249 250 253 257 257 254 250 248 248 248 249 249 250 251 252 252 253 255 256 256 256 256 256 258 259 259 259 259 259 260 260 260 260 262 266 268 270 272
259 256 253 250 245 241 236 231 228 228 231 234 236 237 238 240 243 246 249 250 249 247 245 245 248 251 249 241 237 238 240 240 238 236 232 228 229 236 243 243 239 236 236 238 240 243 246 248 249 250 252 254 255 256 255 252 249 246 246 247 247 248 250 251 252 253 254 255 255 256 256 258 259 259 258 257 258 259 259 259 260 262 264 267 270 271 272
252 249 245 239 234 229 225 223 223 224 227 230 233 234 235 237 241 245 246 247 248 248 246 245 247 249 245 239 235 235 238 240 241 239 237 232 227 228 234 239 240 239 238 238 239 242 245 247 248 250 251 252 254 255 255 252 250 247 245 245 246 247 249 252 253 253 254 255 255 255 255 257 258 258 257 257 258 259 259 259 260 263 266 268 270 271 272
246 242 235 228 223 218 215 218 222 223 224 227 230 232 233 235 239 242 244 246 247 246 243 239 237 235 231 230 231 231 234 237 239 239 238 235 231 228 229 232 236 238 239 240 239 241 245 247 248 250 252 252 253 254 252 249 248 248 247 247 248 249 249 251 251 251 251 252 253 254 254 255 256 258 257 257 258 259 259 260 262 264 267 269 270 270 271
241 234 225 218 213 208 210 217 220 220 222 226 229 231 230 233 238 239 241 244 242 235 230 226 223 220 220 222 223 223 225 228 231 232 233 232 231 229 228 229 231 234 237 238 238 239 244 248 250 251 252 252 250 249 247 247 247 248 249 250 250 250 249 249 249 248 247 248 250 251 251 252 254 255 255 255 256 258 260 263 265 266 267 268 268 268 269
234 224 216 210 205 203 208 215 215 216 222 226 226 226 227 231 235 236 239 240 232 221 218 218 218 220 224 228 228 225 225 226 228 230 230 230 230 230 229 229 230 232 233 235 235 237 242 247 249 249 249 248 246 244 244 246 247 247 248 249 250 250 249 247 246 246 245 245 246 247 248 249 251 251 253 254 256 259 262 264 265 265 265 265 266 268 270
222 214 207 202 200 202 208 208 206 213 224 225 222 222 226 231 234 237 240 236 225 220 223 225 228 232 234 236 238 239 237 236 236 236 235 233 232 232 231 231 232 233 233 234 235 237 240 243 245 245 244 244 244 244 244 245 246 245 246 247 247 246 244 243 242 243 245 246 246 247 247 248 249 250 253 256 259 262 263 263 263 263 263 265 266 269 271
210 202 196 193 198 206 209 202 200 211 219 219 217 219 225 231 235 238 237 227 218 224 235 235 237 244 246 247 250 253 254 251 246 243 240 236 234 233 233 232 233 234 234 234 234 235 236 239 241 241 242 242 242 243 243 244 244 245 245 246 245 243 241 240 240 242 244 244 245 246 247 248 250 252 256 259 260 261 262 262 263 263 263 265 268 271 273
197 188 185 189 200 208 206 201 202 210 213 213 216 220 226 231 232 232 228 218 211 219 233 237 241 245 247 250 252 255 258 256 250 245 240 236 233 232 232 232 233 232 232 232 232 232 234 237 238 239 239 240 240 240 241 241 242 243 243 244 244 243 242 241 241 242 243 243 244 245 247 249 253 256 258 260 261 261 262 263 264 265 267 269 272 273 275
184 180 181 190 199 203 202 200 203 209 211 212 218 222 227 230 227 222 218 213 211 216 226 234 241 244 246 249 251 254 256 256 251 245 239 234 232 232 233 233 232 230 230 231 231 232 233 235 235 235 235 236 237 237 237 238 239 240 241 242 243 243 242 241 241 241 242 244 246 248 250 253 257 258 258 259 261 263 264 265 266 269 271 273 274 276 277
177 178 181 187 191 195 196 195 197 205 211 216 222 225 227 228 225 217 212 212 213 217 223 230 235 239 242 246 250 254 257 256 252 247 240 235 235 235 235 235 234 231 231 231 230 231 231 232 232 232 232 233 234 234 235 236 237 238 238 239 240 240 240 240 241 242 245 248 250 252 255 256 257 257 257 259 260 262 264 267 269 272 274 275 277 278 279
179 182 181 183 187 190 193 196 200 205 211 217 222 226 225 223 220 217 216 217 218 220 224 228 233 237 240 244 249 254 257 256 252 247 240 237 238 238 234 233 233 231 230 230 229 229 229 229 228 227 228 229 230 231 231 232 233 234 234 235 237 238 240 242 244 247 249 252 253 255 256 257 257 258 259 261 263 265 268 270 273 275 276 278 278 278 278
184 183 180 182 187 190 191 196 200 202 206 212 217 222 223 219 214 213 214 215 216 218 220 225 231 237 241 244 248 252 254 253 250 245 238 234 234 233 230 229 229 227 226 225 225 225 225 224 223 223 224 225 227 228 229 229 231 233 235 237 239 241 244 247 249 251 253 254 255 256 257 259 260 261 262 265 267 270 272 273 275 276 277 277 277 277 277
183 183 183 187 192 193 192 192 195 200 206 211 215 218 221 218 211 206 206 205 206 210 215 221 231 239 243 246 248 248 248 247 245 242 236 230 226 224 222 220 220 220 220 220 221 221 221 220 220 222 223 225 228 230 232 234 235 237 239 241 244 246 248 250 251 253 254 255 256 257 259 261 263 265 267 269 271 272 273 274 275 275 276 276 275 275 275
175 179 186 191 195 200 202 202 204 208 211 214 216 218 220 218 210 204 204 205 206 210 215 221 230 238 241 244 245 242 238 234 232 231 228 224 220 217 215 213 214 214 216 217 218 218 219 220 222 225 228 230 233 236 238 240 241 241 242 244 246 248 250 252 253 254 255 257 258 260 262 265 267 269 271 271 272 273 274 275 275 275 274 273 272 272 271
166 172 182 186 191 200 207 208 209 211 214 216 217 216 218 216 211 207 206 206 207 211 215 218 221 223 225 230 233 230 224 219 218 219 219 218 217 217 217 217 219 220 221 222 224 225 227 229 231 233 235 238 241 243 243 243 242 243 244 246 246 247 249 252 254 256 258 260 262 264 266 268 269 270 271 272 272 273 274 274 273 273 272 270 269 269 269
174 175 180 185 189 196 203 205 206 209 212 212 211 211 213 213 210 209 209 209 209 211 214 216 216 214 213 214 215 214 213 212 212 214 215 215 216 219 221 223 225 227 229 231 232 233 234 235 236 238 240 242 244 245 243 243 243 244 246 247 247 249 251 254 256 259 261 263 266 267 269 269 269 269 270 271 271 272 272 271 270 269 269 268 268 268 267
174 172 176 186 192 195 198 202 205 206 206 205 206 209 213 214 213 212 211 211 212 212 213 215 218 219 217 213 208 207 208 211 213 216 217 218 220 222 224 226 228 229 231 233 233 233 233 234 236 238 239 240 242 243 244 246 247 248 249 250 252 254 256 258 260 262 264 266 267 268 268 269 270 269 268 268 268 268 268 267 267 266 266 266 266 267 266
170 174 180 188 193 195 196 202 206 206 204 205 208 212 217 220 220 218 216 215 215 215 216 220 224 225 224 221 215 210 210 213 217 220 221 223 225 226 227 228 229 230 231 232 233 233 234 236 237 239 240 241 243 244 246 248 249 252 254 257 259 260 261 262 263 264 265 266 265 266 266 267 267 266 265 264 263 264 263 263 264 264 263 264 264 266 267
177 181 183 186 190 195 198 202 206 208 210 213 216 219 221 223 224 223 222 220 218 219 222 225 229 230 230 228 224 219 216 218 221 224 226 228 230 231 232 233 234 234 235 236 237 239 240 240 241 242 243 244 244 246 248 251 254 258 260 262 262 263 263 264 263 263 263 262 261 261 263 263 262 261 261 260 260 260 260 260 262 263 264 265 266 266 267
177 179 182 185 190 197 203 205 209 214 218 220 220 219 220 221 222 223 224 222 221 222 225 228 231 233 232 231 228 225 222 222 224 226 229 231 233 234 236 237 237 238 238 239 240 241 242 242 243 244 245 245 246 248 252 255 257 260 260 260 261 262 261 261 261 261 260 259 257 258 259 259 258 258 257 256 257 257 257 259 261 262 263 264 264 265 266
182 186 191 192 195 201 207 209 211 215 218 219 219 219 219 220 220 221 222 223 223 223 225 228 232 233 233 231 229 227 225 225 226 228 230 231 233 234 235 236 237 238 237 237 239 240 241 243 245 246 245 245 247 250 253 255 256 257 257 256 256 257 258 259 260 259 257 255 254 254 254 254 255 256 256 256 257 258 258 259 260 261 262 263 264 265 266
179 186 193 196 198 201 204 205 208 212 216 220 221 221 221 222 222 221 222 223 224 225 226 229 231 232 232 231 229 228 227 226 226 228 230 231 233 234 235 236 237 237 237 237 238 240 243 246 248 247 246 247 248 250 252 253 253 253 252 250 250 253 256 257 255 253 251 250 250 250 251 252 254 256 258 260 261 261 262 262 263 264 266 267 269 270 270
174 178 185 192 194 195 197 202 206 211 216 221 223 224 224 224 224 223 222 222 224 225 227 229 231 232 232 231 230 230 229 228 228 229 230 232 234 235 236 237 237 237 238 239 241 242 244 245 245 244 245 246 247 247 247 247 246 246 247 247 249 250 250 249 247 246 246 247 248 251 252 254 256 258 259 261 263 264 265 266 267 268 270 271 272 272 273
181 179 182 185 187 189 196 204 209 214 221 225 227 228 228 226 225 224 223 223 224 225 226 228 230 231 231 231 231 231 230 229 229 230 230 231 233 234 235 236 236 237 238 240 241 242 243 242 240 238 239 239 238 238 238 238 239 240 242 243 243 242 240 240 241 243 246 248 251 254 255 257 259 261 262 263 265 267 268 269 270 270 270 271 271 271 272
192 192 195 198 198 199 205 213 219 225 229 230 230 230 229 226 224 224 223 224 225 226 227 227 228 229 230 230 230 230 230 229 228 229 229 230 232 233 234 235 235 236 237 238 239 240 240 238 235 232 230 229 229 230 231 230 230 233 235 236 236 237 238 239 242 246 249 252 255 258 261 264 266 268 270 272 273 274 275 275 275 275 274 273 273 272 272
203 206 209 212 213 215 221 227 230 232 232 230 228 227 224 221 219 219 220 222 225 227 228 228 227 227 228 228 227 227 228 228 227 227 228 229 230 231 233 233 233 234 235 236 237 236 233 230 228 226 225 225 227 228 226 225 226 229 232 234 236 239 242 245 248 252 256 260 264 268 271 273 275 277 279 280 281 281 281 281 280 279 278 276 275 274 273
211 212 212 213 214 218 222 225 225 226 226 224 219 215 214 213 214 217 220 225 227 227 227 227 226 223 222 223 225 225 225 226 226 226 227 228 228 230 231 231 231 232 233 234 233 229 225 223 223 223 223 225 228 228 227 227 229 232 236 239 242 246 250 255 259 263 267 270 273 275 276 278 280 281 281 281 280 279 279 279 278 278 277 276 275 273 272
211 209 208 208 208 207 208 211 212 212 212 209 206 205 207 210 215 220 223 225 226 225 224 223 222 218 214 215 219 222 223 225 225 225 226 227 228 229 230 231 231 232 232 231 227 224 223 222 222 223 223 225 226 226 227 230 234 238 243 247 252 256 260 264 268 270 272 273 275 277 278 279 280 279 278 277 276 276 276 276 276 276 276 275 274 273 271
206 203 199 198 197 196 196 198 200 201 203 203 201 202 206 211 217 221 220 217 218 218 216 216 217 214 208 207 211 215 218 221 224 224 225 226 227 228 229 230 230 231 231 229 226 225 223 222 222 222 221 222 224 226 229 233 238 244 249 254 257 261 264 266 268 270 272 275 277 279 279 278 277 276 276 277 277 278 278 278 278 277 276 275 274 273 272
199 196 191 189 189 192 195 197 197 199 203 205 204 204 208 213 216 216 213 209 205 200 198 200 205 207 204 203 206 209 212 215 218 221 222 223 224 226 226 224 224 225 222 220 220 220 219 219 221 222 222 224 227 230 234 239 243 248 252 256 259 262 264 266 268 271 274 276 277 277 276 277 278 279 280 280 281 281 281 281 279 278 276 275 273 272 271
188 192 192 191 193 198 201 203 203 203 205 207 207 208 209 209 205 204 205 199 187 180 179 185 191 193 194 195 195 197 200 202 205 209 211 214 218 220 216 213 217 220 215 209 209 212 213 215 220 224 226 229 233 236 239 243 247 251 254 257 260 262 263 266 269 272 274 274 275 277 278 280 281 282 283 283 284 284 284 283 282 280 278 275 273 271 270
187 195 195 195 198 200 199 199 203 206 205 204 204 203 200 194 187 183 183 181 176 172 174 180 181 181 183 185 186 189 194 195 196 198 199 202 205 206 201 201 211 217 213 207 207 212 215 218 222 227 230 234 237 240 242 246 249 252 255 256 257 260 263 266 269 271 273 275 278 280 282 283 283 284 286 287 288 289 288 286 284 282 280 279 276 274 271